This is the latest recevied weather packets stored in our database for station/object N5YHM-13. If no packets are shown the sender has not sent any weather packets the latest 10 day(s).
| Time | Temp. | Humidity | Pressure | Rain* | Wind** | Luminosity | Snow |
|---|---|---|---|---|---|---|---|
| 1787766663 | 31.67° C | 79% | 1018 hPa | 0 mm | - | 22 W/m² | - |
| 1787766362 | 31.67° C | 75% | 1017.9 hPa | 0 mm | - | 22 W/m² | - |
| 1787766056 | 31.67° C | 76% | 1018 hPa | 0 mm | - | 22 W/m² | - |
| 1787765753 | 31.67° C | 78% | 1018.3 hPa | 0 mm | - | 26 W/m² | - |
| 1787765449 | 31.11° C | 78% | 1018.1 hPa | 0 mm | - | 31 W/m² | - |
| 1787765148 | 31.11° C | 79% | 1018.2 hPa | 0 mm | - | 121 W/m² | - |
| 1787764843 | 31.11° C | 79% | 1018.2 hPa | 0 mm | - | 39 W/m² | - |
| 1787764538 | 31.11° C | 76% | 1018.3 hPa | 0 mm | - | 32 W/m² | - |
| 1787764238 | 30.56° C | 82% | 1018.2 hPa | 0 mm | - | 33 W/m² | - |
| 1787763934 | 30.56° C | 79% | 1018.5 hPa | 0 mm | - | 28 W/m² | - |
| 1787763630 | 30° C | 81% | 1018.4 hPa | 0 mm | - | 60 W/m² | - |
| 1787763325 | 30.56° C | 83% | 1018.2 hPa | 0 mm | - | 24 W/m² | - |
| 1787763024 | 30.56° C | 79% | 1018.5 hPa | 0 mm | - | 22 W/m² | - |
| 1787762720 | 30.56° C | 77% | 1018.6 hPa | 0 mm | - | 25 W/m² | - |
| 1787762418 | 30.56° C | 80% | 1018.6 hPa | 0 mm | - | 23 W/m² | - |
| 1787762115 | 30° C | 81% | 1018.7 hPa | 0 mm | - | 25 W/m² | - |
| 1787761810 | 30° C | 87% | 1018.7 hPa | 0 mm | - | 28 W/m² | - |
| 1787761501 | 30° C | 84% | 1018.8 hPa | 0 mm | - | 28 W/m² | - |
| 1787761195 | 30° C | 83% | 1018.8 hPa | 0 mm | - | 29 W/m² | - |
| 1787760894 | 30.56° C | 82% | 1018.6 hPa | 0 mm | - | 23 W/m² | - |
| 1787760592 | 30.56° C | 80% | 1018.8 hPa | 0 mm | - | 39 W/m² | - |
| 1787760292 | 30° C | 81% | 1018.8 hPa | 0 mm | - | 25 W/m² | - |
| 1787759989 | 30° C | 85% | 1018.7 hPa | 0 mm | - | 22 W/m² | - |
| 1787759684 | 30° C | 86% | 1018.7 hPa | 0 mm | - | 22 W/m² | - |
| 1787759380 | 29.44° C | 85% | 1018.7 hPa | 0 mm | - | 105 W/m² | - |
* Rain latest hour (hover to see other rain measurements)
** Current wind speed in m/s (hover to see current wind gust speed)